QPF
0.00 0.00 0.00 0.00 0.00 0.00 0.00 0.00 0.00 0.00 0.00 0.00 0.00 0.00 0.00 0.00 0.00 0.00 0.00 0.00 0.00 0.00 0.00 0.00 0.00 0.00 0.00 0.00 0.00 0.00 0.00 0.00 0.00 0.00 0.00 0.00 0.00 0.00 0.00 0.00 0.00 0.00 0.00 0.00 0.00 0.00 0.00 0.00 0.00
0.00 0.00 0.00 0.00 0.00 0.00 0.00 0.00 0.00 0.00 0.00 0.00 0.00 0.00 0.00 0.00 0.00 0.00 0.00 0.00 0.00 0.00 0.00 0.00 0.00 0.00 0.00 0.00 0.00 0.00 0.00 0.00 0.00 0.00 0.00 0.00 0.00 0.00 0.00 0.00 0.00 0.00 0.00 0.00 0.00 0.00 0.00 0.00 0.00
0.00 0.00 0.00 0.00 0.00 0.00 0.00 0.00 0.00 0.00 0.00 0.00 0.00 0.00 0.00 0.00 0.00 0.00 0.00 0.00 0.00 0.00 0.00 0.00 0.00 0.00 0.00 0.00 0.00 0.00 0.00 0.00 0.00 0.00 0.00 0.00 0.00 0.00 0.00 0.00 0.00 0.00 0.00 0.00 0.00 0.00 0.00 0.00 0.00
0.00 0.00 0.00 0.00 0.00 0.00 0.00 0.00 0.00 0.00 0.00 0.00 0.00 0.00 0.00 0.00 0.00 0.00 0.00 0.00 0.00 0.00 0.00 0.00 0.00 0.00 0.00 0.00 0.00 0.00 0.00 0.00 0.00 0.00 0.00 0.00 0.00 0.00 0.00 0.00 0.00 0.00 0.00 0.00 0.00 0.00 0.00 0.00 0.00
0.00 0.00 0.00 0.00 0.00 0.00 0.00 0.00 0.00 0.00 0.00 0.00 0.00 0.00 0.00 0.00 0.00 0.00 0.00 0.00 0.00 0.00 0.00 0.00 0.00 0.00 0.00 0.00 0.00 0.00 0.00 0.00 0.00 0.00 0.00 0.00 0.00 0.00 0.00 0.00 0.00 0.00 0.00 0.00 0.00 0.00 0.00 0.00 0.00
0.00 0.00 0.00 0.00 0.00 0.00 0.00 0.00 0.00 0.00 0.00 0.00 0.00 0.00 0.00 0.00 0.00 0.00 0.00 0.00 0.00 0.00 0.00 0.00 0.00 0.00 0.00 0.00 0.00 0.00 0.00 0.00 0.00 0.00 0.00 0.00 0.00 0.00 0.00 0.00 0.00 0.00 0.00 0.00 0.00 0.00 0.00 0.00 0.00
0.00 0.00 0.00 0.00 0.00 0.00 0.00 0.00 0.00 0.00 0.00 0.00 0.00 0.00 0.00 0.00 0.00 0.00 0.00 0.00 0.00 0.00 0.00 0.00 0.00 0.00 0.00 0.00 0.00 0.00 0.00 0.00 0.00 0.00 0.00 0.00 0.00 0.00 0.00 0.00 0.00 0.00 0.00 0.00 0.00 0.00 0.00 0.00 0.00
0.00 0.00 0.00 0.00 0.00 0.00 0.00 0.00 0.00 0.00 0.00 0.00 0.00 0.00 0.00 0.00 0.00 0.00 0.00 0.00 0.00 0.00 0.00 0.00 0.00 0.00 0.00 0.00 0.00 0.00 0.00 0.00 0.00 0.00 0.00 0.00 0.00 0.00 0.00 0.00 0.00 0.00 0.00 0.00 0.00 0.00 0.00 0.00 0.00
0.00 0.00 0.00 0.00 0.00 0.00 0.00 0.00 0.00 0.00 0.00 0.00 0.00 0.00 0.00 0.00 0.00 0.00 0.00 0.00 0.00 0.00 0.00 0.00 0.00 0.00 0.00 0.00 0.00 0.00 0.00 0.00 0.00 0.00 0.00 0.00 0.00 0.00 0.00 0.00 0.00 0.00 0.00 0.00 0.00 0.00 0.00 0.00 0.00
0.00 0.00 0.00 0.00 0.00 0.00 0.00 0.00 0.00 0.00 0.00 0.00 0.00 0.00 0.00 0.00 0.00 0.00 0.00 0.00 0.00 0.00 0.00 0.00 0.00 0.00 0.00 0.00 0.00 0.00 0.00 0.00 0.00 0.00 0.00 0.00 0.00 0.00 0.00 0.00 0.00 0.00 0.00 0.00 0.00 0.00 0.00 0.00 0.00
0.00 0.00 0.00 0.00 0.00 0.00 0.00 0.00 0.00 0.00 0.00 0.00 0.00 0.00 0.00 0.00 0.00 0.00 0.00 0.00 0.00 0.00 0.00 0.00 0.00 0.00 0.00 0.00 0.00 0.00 0.00 0.00 0.00 0.00 0.00 0.00 0.00 0.00 0.00 0.00 0.00 0.00 0.00 0.00 0.00 0.00 0.00 0.00 0.00
0.00 0.00 0.00 0.00 0.00 0.00 0.00 0.00 0.00 0.00 0.00 0.00 0.00 0.00 0.00 0.00 0.00 0.00 0.00 0.00 0.00 0.00 0.00 0.00 0.00 0.00 0.00 0.00 0.00 0.00 0.00 0.00 0.00 0.00 0.00 0.00 0.00 0.00 0.00 0.00 0.00 0.00 0.00 0.00 0.00 0.00 0.00 0.00 0.00
0.00 0.00 0.00 0.00 0.00 0.00 0.00 0.00 0.00 0.00 0.00 0.00 0.00 0.00 0.00 0.00 0.00 0.00 0.00 0.00 0.00 0.00 0.00 0.00 0.00 0.00 0.00 0.00 0.00 0.00 0.00 0.00 0.00 0.00 0.00 0.00 0.00 0.00 0.00 0.00 0.00 0.00 0.00 0.00 0.00 0.00 0.00 0.00 0.00
0.00 0.00 0.00 0.00 0.00 0.00 0.00 0.00 0.00 0.00 0.00 0.00 0.00 0.00 0.00 0.00 0.00 0.00 0.00 0.00 0.00 0.00 0.00 0.00 0.00 0.00 0.00 0.00 0.00 0.00 0.00 0.00 0.00 0.00 0.00 0.00 0.00 0.00 0.00 0.00 0.00 0.00 0.00 0.00 0.00 0.00 0.00 0.00 0.00
0.00 0.00 0.00 0.00 0.00 0.00 0.00 0.00 0.00 0.00 0.00 0.00 0.00 0.00 0.00 0.00 0.00 0.00 0.00 0.00 0.00 0.00 0.00 0.00 0.00 0.00 0.00 0.00 0.00 0.00 0.00 0.00 0.00 0.00 0.00 0.00 0.00 0.00 0.00 0.00 0.00 0.00 0.00 0.00 0.00 0.00 0.00 0.00 0.00
0.00 0.00 0.00 0.00 0.00 0.00 0.00 0.00 0.00 0.00 0.00 0.00 0.00 0.00 0.00 0.00 0.00 0.00 0.00 0.00 0.00 0.00 0.00 0.00 0.00 0.00 0.00 0.00 0.00 0.00 0.00 0.00 0.00 0.00 0.00 0.00 0.00 0.00 0.00 0.00 0.00 0.00 0.00 0.00 0.00 0.00 0.00 0.00 0.00
0.00 0.00 0.00 0.00 0.00 0.00 0.00 0.00 0.00 0.00 0.00 0.00 0.00 0.00 0.00 0.00 0.00 0.00 0.00 0.00 0.00 0.00 0.00 0.00 0.00 0.00 0.00 0.00 0.00 0.00 0.00 0.00 0.00 0.00 0.00 0.00 0.00 0.00 0.00 0.00 0.00 0.00 0.00 0.00 0.00 0.00 0.00 0.00 0.00
0.00 0.00 0.00 0.00 0.00 0.00 0.00 0.00 0.00 0.00 0.00 0.00 0.00 0.00 0.00 0.00 0.00 0.00 0.00 0.00 0.00 0.00 0.00 0.00 0.00 0.00 0.00 0.00 0.00 0.00 0.00 0.00 0.00 0.00 0.00 0.00 0.00 0.00 0.00 0.00 0.00 0.00 0.00 0.00 0.00 0.00 0.00 0.00 0.00
0.00 0.00 0.00 0.00 0.00 0.00 0.00 0.00 0.00 0.00 0.00 0.00 0.00 0.00 0.00 0.00 0.00 0.00 0.00 0.00 0.00 0.00 0.00 0.00 0.00 0.00 0.00 0.00 0.00 0.00 0.00 0.00 0.00 0.00 0.00 0.00 0.00 0.00 0.00 0.00 0.00 0.00 0.00 0.00 0.00 0.00 0.00 0.00 0.00
0.00 0.00 0.00 0.00 0.00 0.00 0.00 0.00 0.00 0.00 0.00 0.00 0.00 0.00 0.00 0.00 0.00 0.00 0.00 0.00 0.00 0.00 0.00 0.00 0.00 0.00 0.00 0.00 0.00 0.00 0.00 0.00 0.00 0.00 0.00 0.00 0.00 0.00 0.00 0.00 0.00 0.00 0.00 0.00 0.00 0.00 0.00 0.00 0.00
0.00 0.00 0.00 0.00 0.00 0.00 0.00 0.00 0.00 0.00 0.00 0.00 0.00 0.00 0.00 0.00 0.00 0.00 0.00 0.00 0.00 0.00 0.00 0.00 0.00 0.00 0.00 0.00 0.00 0.00 0.00 0.00 0.00 0.00 0.00 0.00 0.00 0.00 0.00 0.00 0.00 0.00 0.00 0.00 0.00 0.00 0.00 0.00 0.00
0.00 0.00 0.00 0.00 0.00 0.00 0.00 0.00 0.00 0.00 0.00 0.00 0.00 0.00 0.00 0.00 0.00 0.00 0.00 0.00 0.00 0.00 0.00 0.00 0.00 0.00 0.00 0.00 0.00 0.00 0.00 0.00 0.00 0.00 0.00 0.00 0.00 0.00 0.00 0.00 0.00 0.00 0.00 0.00 0.00 0.00 0.00 0.00 0.00
0.00 0.00 0.00 0.00 0.00 0.00 0.00 0.00 0.00 0.00 0.00 0.00 0.00 0.00 0.00 0.00 0.00 0.00 0.00 0.00 0.00 0.00 0.00 0.00 0.00 0.00 0.00 0.00 0.00 0.00 0.00 0.00 0.00 0.00 0.00 0.00 0.00 0.00 0.00 0.00 0.00 0.00 0.00 0.00 0.00 0.00 0.00 0.00 0.00
0.00 0.00 0.00 0.00 0.00 0.00 0.00 0.00 0.00 0.00 0.00 0.00 0.00 0.00 0.00 0.00 0.00 0.00 0.00 0.00 0.00 0.00 0.00 0.00 0.00 0.00 0.00 0.00 0.00 0.00 0.00 0.00 0.00 0.00 0.00 0.00 0.00 0.00 0.00 0.00 0.00 0.00 0.00 0.00 0.00 0.00 0.00 0.00 0.00
0.00 0.00 0.00 0.00 0.00 0.00 0.00 0.00 0.00 0.00 0.00 0.00 0.00 0.00 0.00 0.00 0.00 0.00 0.00 0.00 0.00 0.00 0.00 0.00 0.00 0.00 0.00 0.00 0.00 0.00 0.00 0.00 0.00 0.00 0.00 0.00 0.00 0.00 0.00 0.00 0.00 0.00 0.00 0.00 0.00 0.00 0.00 0.00 0.00
0.00 0.00 0.00 0.00 0.00 0.00 0.00 0.00 0.00 0.00 0.00 0.00 0.00 0.00 0.00 0.00 0.00 0.00 0.00 0.00 0.00 0.00 0.00 0.00 0.00 0.00 0.00 0.00 0.00 0.00 0.00 0.00 0.00 0.00 0.00 0.00 0.00 0.00 0.00 0.00 0.00 0.00 0.00 0.00 0.00 0.00 0.00 0.00 0.00
0.00 0.00 0.00 0.00 0.00 0.00 0.00 0.00 0.00 0.00 0.00 0.00 0.00 0.00 0.00 0.00 0.00 0.00 0.00 0.00 0.00 0.00 0.00 0.00 0.00 0.00 0.00 0.00 0.00 0.00 0.00 0.00 0.00 0.00 0.00 0.00 0.00 0.00 0.00 0.00 0.00 0.00 0.00 0.00 0.00 0.00 0.00 0.00 0.00
0.00 0.00 0.00 0.00 0.00 0.00 0.00 0.00 0.00 0.00 0.00 0.00 0.00 0.00 0.00 0.00 0.00 0.00 0.00 0.00 0.00 0.00 0.00 0.00 0.00 0.00 0.00 0.00 0.00 0.00 0.00 0.00 0.00 0.00 0.00 0.00 0.00 0.00 0.00 0.00 0.00 0.00 0.00 0.00 0.00 0.00 0.00 0.00 0.00
0.00 0.00 0.00 0.00 0.00 0.00 0.00 0.00 0.00 0.00 0.00 0.00 0.00 0.00 0.00 0.00 0.00 0.00 0.00 0.00 0.00 0.00 0.00 0.00 0.00 0.00 0.00 0.00 0.00 0.00 0.00 0.00 0.00 0.00 0.00 0.00 0.00 0.00 0.00 0.00 0.00 0.00 0.00 0.00 0.00 0.00 0.00 0.00 0.00
0.00 0.00 0.00 0.00 0.00 0.00 0.00 0.00 0.00 0.00 0.00 0.00 0.00 0.00 0.00 0.00 0.00 0.00 0.00 0.00 0.00 0.00 0.00 0.00 0.00 0.00 0.00 0.00 0.00 0.00 0.00 0.00 0.00 0.00 0.00 0.00 0.00 0.00 0.00 0.00 0.00 0.00 0.00 0.00 0.00 0.00 0.00 0.00 0.00
MSLP
1014.76 1014.35 1013.97 1013.07 1012.58 1011.56 1010.35 1010.25 1010.53 1010.36 1010.46 1010.71 1010.87 1010.72 1010.69 1010.91 1011.27 1012.60 1014.03 1014.26 1014.32 1014.58 1014.97 1015.74 1015.99 1016.41 1016.77 1016.97 1017.12 1017.19 1017.23 1017.28 1017.37 1017.49 1017.50 1017.48 1017.41 1017.31 1017.21 1017.16 1017.12 1016.93 1016.67 1016.47 1016.26 1016.04 1015.88 1015.72 1015.47
1014.58 1014.21 1013.56 1012.76 1011.90 1010.66 1009.70 1010.21 1010.30 1010.33 1010.70 1011.12 1011.21 1011.15 1011.10 1011.26 1012.28 1013.17 1013.82 1014.49 1014.48 1014.71 1015.40 1015.91 1016.23 1016.74 1017.00 1017.18 1017.26 1017.37 1017.44 1017.54 1017.68 1017.79 1017.79 1017.72 1017.65 1017.62 1017.53 1017.34 1017.14 1016.92 1016.73 1016.47 1016.26 1016.14 1016.05 1015.88 1015.69
1014.77 1014.32 1012.99 1012.38 1011.69 1010.36 1009.79 1010.19 1010.16 1010.67 1011.05 1011.05 1011.17 1011.61 1011.51 1011.88 1012.81 1013.17 1014.08 1014.59 1014.69 1015.16 1015.84 1016.27 1016.49 1016.88 1017.19 1017.33 1017.45 1017.62 1017.77 1017.90 1017.93 1017.96 1018.02 1017.99 1017.90 1017.82 1017.73 1017.56 1017.37 1017.14 1016.86 1016.65 1016.39 1016.23 1016.11 1015.94 1015.78
1014.59 1013.90 1013.87 1012.59 1011.24 1010.96 1010.63 1010.37 1010.56 1010.73 1011.18 1011.38 1011.34 1011.33 1012.30 1013.12 1013.29 1013.78 1014.48 1014.70 1014.92 1015.31 1016.11 1016.64 1016.84 1017.16 1017.36 1017.51 1017.69 1017.88 1017.99 1018.14 1018.29 1018.29 1018.21 1018.20 1018.15 1018.00 1017.89 1017.79 1017.58 1017.29 1017.00 1016.75 1016.50 1016.33 1016.14 1016.02 1015.80
1014.65 1013.80 1012.72 1012.10 1011.45 1011.15 1011.00 1011.01 1010.99 1010.70 1010.83 1011.08 1011.52 1011.51 1012.38 1013.64 1014.29 1014.61 1014.80 1015.01 1015.14 1015.54 1016.34 1016.79 1017.13 1017.39 1017.56 1017.71 1017.88 1018.02 1018.23 1018.39 1018.38 1018.35 1018.34 1018.36 1018.31 1018.23 1018.11 1017.93 1017.73 1017.38 1017.08 1016.77 1016.62 1016.49 1016.31 1016.09 1015.89
1013.98 1013.90 1012.57 1011.50 1011.07 1011.29 1011.13 1011.17 1011.18 1010.96 1010.99 1011.29 1011.58 1011.87 1012.79 1014.19 1014.59 1015.36 1015.25 1015.27 1015.39 1015.81 1016.44 1016.84 1017.38 1017.60 1017.69 1017.83 1018.03 1018.25 1018.42 1018.48 1018.57 1018.67 1018.69 1018.65 1018.60 1018.50 1018.29 1018.13 1017.85 1017.48 1017.19 1016.91 1016.62 1016.47 1016.30 1016.07 1015.81
1013.79 1013.46 1012.37 1011.91 1011.42 1011.26 1010.99 1011.49 1011.26 1010.89 1010.99 1011.13 1011.59 1011.73 1013.06 1014.03 1015.01 1015.68 1015.60 1015.81 1015.86 1016.16 1016.42 1016.80 1017.15 1017.59 1017.90 1018.13 1018.32 1018.56 1018.71 1018.78 1018.81 1018.90 1019.01 1019.00 1018.86 1018.70 1018.50 1018.26 1017.98 1017.67 1017.45 1017.13 1016.77 1016.48 1016.28 1016.07 1015.92
1014.37 1013.74 1012.90 1012.16 1011.49 1011.17 1011.58 1011.61 1011.59 1011.35 1011.10 1011.82 1011.90 1011.74 1012.68 1013.83 1015.42 1015.85 1015.98 1016.04 1016.24 1016.49 1016.66 1016.85 1017.12 1017.36 1017.63 1018.17 1018.68 1018.91 1019.03 1019.08 1019.13 1019.22 1019.24 1019.16 1018.94 1018.81 1018.71 1018.38 1018.22 1017.94 1017.62 1017.33 1017.00 1016.74 1016.45 1016.16 1015.97
1014.96 1013.88 1012.59 1012.26 1012.17 1011.59 1012.05 1011.81 1011.91 1012.04 1011.60 1011.73 1011.97 1012.37 1013.44 1014.39 1015.54 1016.00 1016.27 1016.43 1016.55 1016.76 1016.89 1017.11 1017.32 1017.54 1017.87 1018.24 1018.85 1019.12 1019.32 1019.44 1019.40 1019.25 1019.32 1018.95 1018.73 1018.62 1018.37 1018.53 1018.42 1018.13 1017.82 1017.49 1017.15 1016.89 1016.64 1016.34 1015.77
1014.58 1013.73 1012.74 1012.73 1012.66 1012.42 1012.44 1012.39 1012.08 1011.91 1011.53 1011.40 1011.87 1013.00 1013.89 1014.74 1015.39 1015.69 1015.91 1016.15 1016.32 1016.63 1017.03 1017.30 1017.57 1017.84 1018.16 1018.45 1018.83 1019.05 1019.23 1019.21 1019.21 1019.17 1019.12 1018.98 1018.91 1018.92 1018.81 1018.57 1018.51 1018.22 1017.98 1017.52 1017.16 1016.86 1016.60 1016.07 1015.41
1014.88 1013.58 1013.39 1013.12 1013.27 1013.34 1013.00 1012.67 1012.43 1011.80 1011.13 1010.74 1010.94 1011.92 1013.37 1014.24 1014.79 1015.08 1015.22 1015.33 1015.86 1016.36 1017.01 1017.41 1017.66 1017.98 1018.21 1018.54 1018.81 1018.92 1019.08 1019.19 1019.22 1019.35 1019.32 1019.24 1019.02 1018.83 1018.58 1018.34 1018.09 1017.96 1017.79 1017.20 1016.89 1016.51 1016.16 1015.89 1015.46
1015.08 1014.20 1014.02 1013.74 1013.86 1013.72 1013.27 1012.94 1012.34 1011.74 1010.69 1011.09 1011.40 1012.15 1013.00 1013.60 1014.02 1014.29 1014.60 1015.00 1015.62 1016.29 1016.82 1017.37 1017.65 1018.03 1018.29 1018.57 1018.73 1018.82 1018.91 1019.19 1019.13 1019.35 1019.44 1019.25 1019.02 1018.89 1018.69 1018.40 1018.24 1018.04 1017.70 1017.24 1016.79 1016.50 1016.27 1015.77 1015.34
1015.05 1014.40 1014.39 1014.18 1014.15 1013.97 1013.69 1012.93 1012.49 1011.22 1010.97 1011.25 1011.87 1012.47 1012.71 1013.02 1013.37 1013.90 1014.29 1014.86 1015.45 1016.01 1016.54 1017.13 1017.57 1017.81 1018.20 1018.48 1018.75 1018.95 1019.04 1019.09 1019.26 1019.40 1019.48 1019.39 1019.14 1018.96 1018.77 1018.60 1018.33 1018.12 1017.79 1017.32 1016.81 1016.55 1016.24 1015.71 1015.81
1014.90 1014.67 1014.37 1014.20 1014.04 1013.93 1013.63 1012.67 1012.70 1010.50 1010.70 1010.93 1011.40 1011.69 1012.04 1012.38 1012.83 1013.54 1014.09 1014.48 1014.94 1015.49 1016.11 1016.93 1017.51 1017.80 1018.25 1018.43 1018.70 1018.93 1019.16 1019.31 1019.41 1019.47 1019.53 1019.58 1019.40 1019.07 1018.73 1018.52 1018.28 1017.94 1017.73 1017.33 1017.15 1016.63 1016.11 1015.82 1015.65
1015.01 1014.71 1014.17 1013.74 1013.76 1013.70 1013.52 1012.42 1011.04 1010.06 1010.66 1010.56 1010.76 1011.00 1011.43 1011.80 1012.40 1012.83 1013.39 1013.86 1014.40 1014.96 1015.78 1016.56 1017.19 1017.78 1018.25 1018.53 1018.74 1019.12 1019.36 1019.42 1019.43 1019.55 1019.69 1019.58 1019.42 1019.21 1018.93 1018.60 1018.26 1018.01 1017.74 1017.24 1017.00 1016.38 1015.99 1015.51 1015.28
1015.03 1014.77 1013.98 1013.34 1013.65 1013.62 1013.60 1010.79 1010.07 1010.18 1010.13 1009.88 1010.05 1010.17 1010.80 1011.26 1011.70 1012.26 1012.84 1013.52 1014.21 1014.69 1015.41 1016.38 1017.03 1017.62 1018.06 1018.49 1018.78 1019.05 1019.45 1019.52 1019.63 1019.64 1019.64 1019.70 1019.54 1019.26 1018.95 1018.66 1018.41 1018.24 1017.60 1017.17 1017.00 1016.73 1016.34 1016.00 1015.91
1014.87 1014.01 1013.66 1013.29 1013.51 1013.58 1013.37 1011.02 1010.30 1010.31 1010.00 1009.52 1009.52 1009.68 1009.89 1010.50 1011.27 1011.80 1012.49 1013.21 1013.73 1014.36 1015.18 1016.10 1016.85 1017.40 1017.96 1018.45 1018.85 1019.15 1019.46 1019.54 1019.69 1019.74 1019.68 1019.72 1019.69 1019.49 1019.11 1018.77 1018.51 1018.56 1017.95 1017.29 1017.21 1016.88 1016.72 1016.45 1016.27
1014.17 1014.11 1013.72 1013.31 1013.46 1013.45 1012.79 1011.06 1010.21 1010.04 1009.86 1009.30 1009.20 1009.42 1009.55 1009.81 1010.36 1011.35 1012.08 1012.71 1013.49 1014.05 1014.97 1015.88 1016.66 1017.44 1018.09 1018.68 1019.14 1019.32 1019.50 1019.51 1019.61 1019.73 1019.87 1019.84 1019.76 1019.57 1019.21 1018.90 1018.62 1018.72 1018.02 1017.43 1017.31 1017.13 1016.93 1016.86 1016.66
1014.37 1014.25 1013.72 1013.48 1013.47 1013.26 1012.09 1010.81 1009.75 1009.36 1009.37 1008.92 1008.52 1008.80 1009.25 1009.61 1010.11 1011.35 1012.15 1012.72 1013.27 1013.85 1014.50 1015.62 1016.52 1017.42 1018.01 1018.63 1019.01 1019.20 1019.19 1019.44 1019.45 1019.57 1019.95 1019.86 1019.84 1019.74 1019.39 1018.93 1018.79 1018.86 1018.35 1017.86 1017.69 1017.28 1017.07 1016.58 1016.64
1014.42 1014.33 1014.13 1013.79 1013.73 1013.54 1011.95 1010.45 1009.12 1008.59 1008.06 1007.88 1007.91 1008.04 1008.83 1009.57 1010.61 1011.54 1012.05 1012.67 1012.95 1013.67 1014.44 1015.42 1016.23 1017.19 1017.73 1018.16 1018.62 1018.84 1019.13 1019.33 1019.30 1019.47 1019.72 1019.92 1019.83 1019.76 1019.55 1019.24 1018.99 1019.12 1018.71 1018.25 1017.79 1017.39 1017.04 1016.77 1016.98
1014.57 1014.07 1014.16 1014.19 1013.85 1013.37 1012.46 1009.59 1008.02 1007.49 1007.51 1007.55 1007.81 1008.23 1008.94 1009.46 1010.12 1011.17 1011.95 1012.52 1012.98 1013.65 1014.39 1015.29 1016.10 1016.92 1017.53 1018.05 1018.65 1019.03 1019.30 1019.46 1019.45 1019.53 1019.50 1019.75 1019.83 1019.73 1019.66 1019.33 1019.17 1019.06 1018.97 1018.48 1018.01 1017.74 1017.50 1017.10 1016.97
1014.49 1014.19 1013.96 1014.22 1014.47 1013.50 1013.02 1009.45 1007.57 1007.25 1007.01 1007.04 1007.22 1007.92 1008.56 1009.52 1010.25 1011.11 1011.85 1012.50 1013.04 1013.73 1014.52 1015.47 1016.26 1016.92 1017.50 1017.95 1018.20 1018.39 1018.57 1018.68 1018.76 1019.05 1019.30 1019.53 1019.70 1019.65 1019.63 1019.36 1019.07 1018.97 1018.94 1018.66 1018.29 1018.11 1017.73 1017.41 1016.98
1014.02 1014.36 1014.35 1014.33 1014.14 1013.67 1012.68 1011.72 1007.31 1007.37 1006.64 1006.01 1006.51 1007.37 1008.32 1009.32 1010.29 1011.03 1011.79 1012.47 1013.11 1013.98 1014.56 1015.53 1016.37 1016.97 1017.43 1017.85 1017.99 1018.08 1018.41 1018.69 1018.90 1019.16 1019.34 1019.50 1019.61 1019.69 1019.57 1019.40 1019.11 1019.07 1018.96 1018.78 1018.44 1018.25 1017.96 1017.77 1017.34
1014.44 1014.80 1015.05 1015.08 1014.52 1013.27 1011.73 1011.00 1006.85 1006.71 1006.07 1005.68 1006.24 1007.22 1008.22 1009.20 1010.24 1011.10 1011.96 1012.63 1013.31 1014.06 1014.78 1015.47 1016.14 1016.85 1017.41 1017.72 1018.06 1018.10 1018.22 1018.60 1018.83 1019.02 1019.05 1019.23 1019.41 1019.46 1019.48 1019.44 1019.24 1019.12 1018.88 1018.71 1018.66 1018.38 1018.28 1017.95 1017.73
1014.26 1014.48 1015.14 1015.15 1014.70 1012.14 1011.61 1010.82 1006.54 1006.11 1006.05 1006.10 1006.25 1007.12 1008.24 1009.30 1010.26 1011.08 1011.83 1012.42 1013.16 1013.81 1014.62 1015.35 1015.87 1016.55 1017.24 1017.61 1018.01 1018.11 1018.20 1018.41 1018.48 1018.68 1018.79 1018.97 1019.11 1019.32 1019.37 1019.36 1019.21 1019.17 1018.87 1018.58 1018.43 1018.36 1018.31 1018.18 1018.07
1013.39 1013.39 1013.29 1013.44 1013.36 1011.97 1011.92 1008.82 1005.79 1005.67 1006.01 1006.29 1006.63 1006.91 1008.22 1009.39 1010.31 1011.03 1011.75 1012.39 1013.10 1013.80 1014.52 1015.22 1015.72 1016.39 1016.93 1017.33 1017.86 1018.15 1018.36 1018.34 1018.51 1018.64 1018.84 1018.90 1019.03 1019.26 1019.39 1019.37 1019.29 1019.12 1018.80 1018.64 1018.36 1018.42 1018.46 1018.51 1018.44
1013.46 1013.42 1012.72 1012.95 1013.95 1012.09 1009.48 1007.32 1005.98 1005.54 1005.77 1006.15 1006.79 1007.39 1007.97 1008.85 1009.93 1010.79 1011.53 1012.26 1013.09 1013.73 1014.38 1014.94 1015.56 1016.15 1016.67 1017.09 1017.60 1018.03 1018.24 1018.41 1018.43 1018.64 1018.88 1018.98 1019.18 1019.31 1019.36 1019.37 1019.23 1019.08 1018.84 1018.68 1018.50 1018.67 1018.60 1018.67 1018.87
1011.32 1011.38 1012.43 1012.43 1011.79 1010.45 1007.97 1006.89 1005.09 1005.12 1005.02 1005.90 1006.84 1007.55 1008.12 1008.74 1009.64 1010.52 1011.30 1012.01 1012.79 1013.53 1014.33 1014.88 1015.38 1015.82 1016.32 1016.83 1017.28 1017.65 1018.02 1018.30 1018.40 1018.69 1018.80 1018.87 1019.16 1019.32 1019.27 1019.38 1019.27 1019.12 1018.93 1018.82 1018.67 1018.75 1018.85 1018.86 1018.91
1010.90 1010.61 1010.77 1010.77 1010.25 1008.92 1007.32 1005.10 1004.53 1004.38 1004.44 1005.07 1006.06 1007.16 1008.01 1008.62 1009.20 1009.98 1010.89 1011.77 1012.65 1013.36 1014.09 1014.51 1015.10 1015.64 1016.22 1016.64 1017.04 1017.57 1017.90 1018.15 1018.37 1018.57 1018.84 1018.90 1019.13 1019.24 1019.26 1019.35 1019.29 1019.20 1018.99 1018.91 1018.84 1018.81 1019.07 1018.94 1019.21
1009.14 1008.19 1008.29 1008.46 1008.93 1008.62 1007.53 1004.47 1004.35 1004.79 1005.24 1005.73 1006.03 1006.85 1007.84 1008.58 1009.20 1009.89 1010.62 1011.42 1012.25 1013.05 1013.77 1014.32 1014.73 1015.15 1015.85 1016.32 1016.86 1017.39 1017.68 1018.02 1018.17 1018.34 1018.64 1018.87 1018.93 1019.31 1019.30 1019.35 1019.38 1019.31 1019.18 1018.98 1018.90 1018.99 1019.12 1019.29 1019.25
Thickness
5715 5719 5723 5725 5709 5710 5710 5716 5721 5720 5722 5731 5731 5730 5729 5730 5724 5715 5720 5720 5719 5715 5709 5701 5698 5692 5688 5685 5683 5680 5678 5675 5673 5669 5667 5665 5664 5662 5661 5658 5656 5656 5656 5655 5655 5655 5655 5655 5655
5715 5720 5723 5717 5704 5703 5721 5723 5717 5727 5729 5729 5728 5729 5728 5726 5727 5721 5719 5717 5715 5712 5705 5699 5695 5690 5685 5683 5680 5677 5675 5672 5668 5665 5663 5661 5659 5657 5656 5655 5655 5655 5653 5653 5653 5652 5650 5650 5649
5714 5717 5716 5709 5702 5708 5717 5721 5728 5728 5728 5728 5727 5728 5729 5725 5724 5725 5721 5716 5713 5707 5700 5696 5692 5687 5683 5679 5677 5674 5670 5667 5665 5663 5659 5656 5655 5653 5652 5651 5650 5649 5649 5649 5648 5647 5646 5645 5644
5712 5715 5708 5703 5705 5712 5716 5726 5727 5726 5726 5727 5729 5725 5727 5725 5724 5724 5718 5714 5711 5706 5698 5692 5688 5684 5680 5677 5674 5670 5667 5663 5660 5657 5655 5652 5650 5649 5648 5646 5645 5645 5646 5645 5644 5642 5641 5640 5640
5708 5708 5701 5698 5702 5711 5718 5722 5724 5726 5728 5728 5727 5726 5724 5722 5721 5718 5716 5713 5709 5704 5695 5690 5685 5681 5678 5675 5672 5668 5664 5660 5658 5656 5653 5650 5648 5646 5644 5643 5641 5641 5641 5641 5639 5637 5635 5634 5633
5701 5701 5696 5700 5711 5710 5718 5723 5723 5725 5728 5726 5724 5724 5724 5719 5718 5711 5712 5710 5706 5701 5694 5689 5683 5680 5677 5674 5670 5665 5662 5659 5655 5652 5648 5646 5644 5642 5640 5639 5638 5638 5637 5636 5635 5632 5630 5628 5626
5698 5696 5699 5700 5704 5707 5719 5721 5720 5727 5727 5728 5730 5725 5723 5719 5715 5709 5709 5706 5703 5699 5694 5690 5685 5679 5675 5671 5666 5662 5658 5655 5651 5648 5644 5641 5640 5638 5636 5636 5634 5633 5631 5629 5628 5626 5622 5619 5616
5696 5697 5689 5699 5706 5710 5715 5718 5722 5724 5727 5728 5730 5726 5724 5723 5711 5707 5706 5704 5701 5697 5693 5690 5686 5682 5677 5669 5664 5658 5654 5651 5647 5643 5640 5638 5636 5634 5632 5631 5629 5626 5624 5622 5619 5615 5612 5608 5604
5690 5691 5694 5697 5695 5711 5712 5714 5719 5720 5724 5725 5728 5728 5722 5719 5709 5705 5701 5700 5698 5695 5692 5688 5685 5680 5674 5668 5661 5656 5651 5646 5643 5641 5638 5636 5634 5632 5631 5627 5623 5620 5617 5614 5610 5604 5599 5595 5592
5689 5689 5698 5702 5704 5706 5707 5708 5715 5717 5720 5725 5726 5720 5718 5713 5708 5705 5702 5700 5699 5695 5690 5687 5682 5677 5671 5666 5659 5653 5648 5645 5641 5638 5635 5633 5630 5627 5624 5622 5618 5614 5610 5606 5600 5595 5589 5583 5578
5679 5691 5696 5699 5700 5700 5702 5704 5710 5715 5716 5730 5732 5730 5719 5715 5712 5711 5709 5707 5702 5697 5690 5685 5680 5675 5670 5665 5659 5653 5648 5643 5639 5635 5631 5628 5626 5624 5621 5617 5614 5609 5604 5600 5594 5587 5580 5571 5563
5672 5684 5686 5691 5691 5694 5699 5704 5707 5712 5726 5729 5730 5726 5721 5717 5716 5715 5712 5709 5702 5696 5690 5683 5678 5673 5669 5663 5658 5653 5648 5642 5638 5632 5628 5625 5623 5620 5616 5612 5608 5603 5597 5592 5586 5577 5566 5557 5546
5667 5677 5678 5684 5686 5689 5693 5701 5704 5714 5725 5727 5720 5717 5719 5720 5719 5716 5713 5708 5702 5696 5691 5684 5678 5674 5668 5662 5656 5650 5645 5640 5635 5629 5625 5622 5619 5615 5611 5606 5602 5597 5590 5584 5577 5567 5553 5541 5524
5668 5669 5677 5681 5684 5686 5688 5702 5697 5723 5723 5722 5719 5721 5721 5721 5720 5715 5710 5706 5703 5698 5692 5684 5677 5672 5666 5660 5654 5648 5642 5636 5630 5626 5622 5617 5613 5611 5608 5604 5599 5594 5586 5578 5569 5558 5543 5526 5510
5658 5660 5672 5679 5681 5683 5684 5693 5705 5724 5718 5723 5723 5724 5721 5722 5720 5717 5713 5709 5705 5700 5693 5685 5678 5670 5663 5657 5651 5644 5637 5633 5628 5622 5617 5614 5611 5607 5604 5600 5595 5589 5582 5575 5563 5551 5536 5521 5508
5646 5651 5659 5675 5671 5677 5678 5708 5716 5714 5716 5721 5725 5728 5722 5721 5721 5719 5715 5709 5703 5699 5693 5684 5677 5669 5662 5655 5649 5642 5634 5628 5623 5619 5615 5610 5607 5604 5601 5596 5591 5584 5580 5571 5559 5544 5531 5515 5504
5636 5651 5653 5667 5667 5667 5668 5698 5702 5703 5708 5719 5723 5726 5727 5724 5719 5718 5715 5709 5704 5698 5691 5682 5674 5668 5661 5653 5646 5639 5632 5626 5620 5615 5612 5608 5603 5600 5596 5593 5588 5580 5575 5568 5555 5543 5529 5516 5506
5639 5635 5644 5656 5660 5656 5664 5682 5697 5701 5701 5712 5719 5720 5723 5724 5722 5717 5712 5708 5702 5697 5688 5680 5672 5664 5656 5648 5641 5635 5629 5625 5619 5613 5608 5604 5600 5597 5594 5589 5585 5578 5574 5568 5555 5544 5533 5520 5510
5623 5626 5637 5645 5646 5648 5663 5677 5692 5700 5701 5707 5715 5719 5719 5719 5721 5711 5706 5702 5699 5694 5689 5678 5668 5660 5653 5644 5639 5633 5630 5624 5620 5613 5606 5602 5597 5593 5590 5588 5582 5576 5572 5565 5555 5548 5539 5533 5522
5615 5617 5623 5633 5632 5635 5655 5665 5689 5695 5706 5713 5716 5721 5717 5715 5706 5702 5700 5697 5696 5691 5684 5675 5667 5657 5651 5644 5638 5633 5627 5622 5618 5612 5606 5600 5596 5592 5588 5584 5581 5573 5569 5564 5558 5553 5546 5541 5531
5605 5613 5615 5618 5624 5627 5634 5669 5691 5697 5697 5701 5706 5708 5706 5709 5707 5701 5696 5693 5690 5685 5679 5671 5664 5655 5647 5641 5633 5626 5621 5617 5614 5609 5606 5599 5595 5591 5586 5583 5580 5574 5569 5565 5561 5556 5550 5547 5542
5596 5607 5611 5607 5604 5612 5619 5647 5684 5688 5693 5696 5705 5703 5705 5699 5699 5696 5691 5687 5684 5679 5672 5664 5656 5649 5642 5636 5632 5628 5625 5622 5618 5611 5606 5600 5595 5590 5586 5583 5581 5575 5570 5566 5563 5556 5555 5553 5552
5602 5593 5596 5599 5598 5601 5617 5612 5676 5670 5688 5706 5705 5704 5700 5697 5693 5690 5686 5682 5678 5670 5666 5657 5649 5643 5638 5632 5630 5627 5621 5616 5612 5607 5602 5598 5593 5589 5585 5582 5580 5576 5572 5568 5565 5560 5557 5556 5557
5581 5580 5577 5577 5586 5585 5614 5617 5663 5678 5689 5700 5697 5697 5693 5689 5685 5682 5678 5673 5668 5663 5657 5651 5645 5638 5632 5628 5623 5621 5618 5612 5609 5604 5602 5598 5593 5589 5585 5581 5579 5576 5575 5572 5566 5564 5560 5559 5560
5570 5580 5562 5564 5564 5600 5592 5598 5660 5678 5680 5687 5694 5690 5686 5681 5678 5674 5670 5668 5663 5657 5651 5645 5641 5634 5628 5623 5618 5616 5613 5610 5608 5604 5602 5597 5594 5588 5585 5580 5579 5576 5575 5574 5571 5566 5564 5562 5560
5568 5579 5574 5575 5574 5606 5570 5612 5662 5668 5669 5675 5679 5685 5677 5671 5669 5666 5663 5661 5655 5649 5644 5638 5635 5629 5624 5620 5614 5609 5606 5606 5603 5600 5597 5595 5591 5586 5582 5579 5577 5575 5574 5574 5573 5569 5565 5561 5560
5552 5552 5574 5542 5503 5568 5604 5630 5652 5660 5660 5667 5667 5668 5668 5666 5662 5659 5656 5653 5647 5642 5637 5633 5629 5624 5619 5615 5610 5605 5602 5599 5599 5595 5592 5590 5586 5582 5579 5576 5575 5574 5573 5572 5572 5568 5566 5563 5557
5566 5572 5552 5549 5560 5569 5603 5609 5648 5653 5663 5657 5657 5657 5659 5658 5655 5652 5648 5645 5640 5635 5629 5626 5622 5619 5615 5610 5606 5602 5598 5595 5593 5589 5588 5587 5582 5578 5577 5574 5572 5572 5571 5570 5570 5568 5565 5562 5560
5556 5559 5558 5568 5568 5581 5593 5624 5651 5662 5666 5662 5658 5653 5651 5649 5649 5647 5642 5637 5631 5628 5623 5620 5616 5613 5608 5605 5601 5597 5593 5591 5588 5585 5582 5581 5578 5575 5573 5570 5569 5569 5569 5568 5568 5566 5562 5562 5557
5573 5581 5578 5571 5563 5569 5579 5614 5635 5641 5642 5643 5651 5648 5645 5642 5641 5638 5635 5631 5626 5620 5616 5613 5611 5609 5603 5600 5596 5591 5589 5585 5583 5581 5578 5575 5575 5569 5568 5567 5565 5564 5564 5565 5565 5562 5560 5558 5556